Time,TemperatureF,DewpointF,PressureIn,WindDirection,WindDirectionDegrees,WindSpeedMPH,WindSpeedGustMPH,Humidity,HourlyPrecipIn,Conditions,Clouds,dailyrainin,SoftwareType,DateUTC
2013-05-21 00:00:00,75.4,58.6,29.97,SSW,202,1.1,1.1,56,0.00,,CLR,0.00,VWS V14.01,2013-05-21 04:00:00,
2013-05-21 00:01:00,75.4,58.6,29.97,SSW,202,1.1,1.1,56,0.00,,CLR,0.00,VWS V14.01,2013-05-21 04:01:00,
2013-05-21 00:06:00,75.2,58.4,29.97,SSW,202,1.6,4.5,56,0.00,,CLR,0.00,VWS V14.01,2013-05-21 04:06:00,
2013-05-21 00:11:00,75.2,58.4,29.97,SW,225,2.7,4.5,56,0.00,,CLR,0.00,VWS V14.01,2013-05-21 04:11:00,
2013-05-21 00:16:00,75.0,58.8,29.97,SSW,202,1.6,4.5,57,0.00,,CLR,0.00,VWS V14.01,2013-05-21 04:16:00,
2013-05-21 00:21:00,75.0,58.8,29.97,SSW,202,1.6,4.5,57,0.00,,CLR,0.00,VWS V14.01,2013-05-21 04:21:00,
2013-05-21 00:26:00,74.8,59.1,29.97,SSW,202,2.9,4.5,58,0.00,,CLR,0.00,VWS V14.01,2013-05-21 04:26:00,
2013-05-21 00:31:00,74.7,59.4,29.97,SSW,202,2.9,4.5,59,0.00,,CLR,0.00,VWS V14.01,2013-05-21 04:31:00,
2013-05-21 00:36:00,74.7,59.4,29.97,SSW,202,3.4,4.5,59,0.00,,CLR,0.00,VWS V14.01,2013-05-21 04:36:00,
2013-05-21 00:41:00,74.7,59.9,29.97,SSW,202,2.2,4.5,60,0.00,,CLR,0.00,VWS V14.01,2013-05-21 04:41:00,
2013-05-21 00:46:00,74.7,59.9,29.97,SSW,202,1.6,4.5,60,0.00,,CLR,0.00,VWS V14.01,2013-05-21 04:46:00,
2013-05-21 00:51:00,74.5,59.7,29.97,SSW,202,2.7,4.5,60,0.00,,CLR,0.00,VWS V14.01,2013-05-21 04:51:00,
2013-05-21 00:56:00,74.5,59.7,29.97,SSW,202,2.0,4.5,60,0.00,,CLR,0.00,VWS V14.01,2013-05-21 04:56:00,
2013-05-21 01:00:00,74.5,60.2,29.97,SSW,202,2.5,4.5,61,0.00,,CLR,0.00,VWS V14.01,2013-05-21 05:00:00,
2013-05-21 01:01:00,74.3,59.5,29.97,SSW,202,1.3,3.1,60,0.00,,CLR,0.00,VWS V14.01,2013-05-21 05:01:00,
2013-05-21 01:06:00,74.3,60.0,29.97,SSW,202,1.6,3.1,61,0.00,,CLR,0.00,VWS V14.01,2013-05-21 05:06:00,
2013-05-21 01:11:00,74.3,60.0,29.94,SSW,202,1.6,3.1,61,0.00,,CLR,0.00,VWS V14.01,2013-05-21 05:11:00,
2013-05-21 01:16:00,74.3,60.0,29.94,SW,225,1.6,3.1,61,0.00,,CLR,0.00,VWS V14.01,2013-05-21 05:16:00,
2013-05-21 01:21:00,74.3,60.5,29.94,SW,225,1.6,3.1,62,0.00,,CLR,0.00,VWS V14.01,2013-05-21 05:21:00,
2013-05-21 01:26:00,74.1,60.3,29.97,SSW,202,2.2,3.1,62,0.00,,CLR,0.00,VWS V14.01,2013-05-21 05:26:00,
2013-05-21 01:31:00,74.1,60.3,29.97,South,180,2.7,3.8,62,0.00,,CLR,0.00,VWS V14.01,2013-05-21 05:31:00,
2013-05-21 01:36:00,74.1,60.3,29.97,SW,225,2.5,4.0,62,0.00,,CLR,0.00,VWS V14.01,2013-05-21 05:36:00,
2013-05-21 01:41:00,74.1,60.7,29.97,SSW,202,2.5,4.0,63,0.00,,CLR,0.00,VWS V14.01,2013-05-21 05:41:00,
2013-05-21 01:46:00,74.1,60.3,29.97,WSW,248,2.2,4.0,62,0.00,,CLR,0.00,VWS V14.01,2013-05-21 05:46:00,
2013-05-21 01:51:00,73.9,60.1,29.97,SW,225,2.0,4.0,62,0.00,,CLR,0.00,VWS V14.01,2013-05-21 05:51:00,
2013-05-21 01:56:00,73.9,60.6,29.97,SSW,202,3.1,4.0,63,0.00,,CLR,0.00,VWS V14.01,2013-05-21 05:56:00,
2013-05-21 02:00:00,73.9,60.6,29.97,SSW,202,1.6,4.0,63,0.00,,CLR,0.00,VWS V14.01,2013-05-21 06:00:00,
2013-05-21 02:01:00,73.8,60.4,29.97,SW,225,1.3,2.2,63,0.00,,CLR,0.00,VWS V14.01,2013-05-21 06:01:00,
2013-05-21 02:06:00,73.8,60.4,29.97,South,180,1.1,3.1,63,0.00,,CLR,0.00,VWS V14.01,2013-05-21 06:06:00,
2013-05-21 02:11:00,73.6,60.2,29.97,SSW,202,1.3,3.1,63,0.00,,CLR,0.00,VWS V14.01,2013-05-21 06:11:00,
2013-05-21 02:16:00,73.4,60.5,29.97,South,180,3.4,3.4,64,0.00,,CLR,0.00,VWS V14.01,2013-05-21 06:16:00,
2013-05-21 02:21:00,73.2,60.8,29.97,SSW,202,0.9,3.4,65,0.00,,CLR,0.00,VWS V14.01,2013-05-21 06:21:00,
2013-05-21 02:26:00,73.0,60.6,29.97,SW,225,0.0,3.4,65,0.00,,CLR,0.00,VWS V14.01,2013-05-21 06:26:00,
2013-05-21 02:31:00,73.0,60.6,29.97,SSW,202,0.0,3.4,65,0.00,,CLR,0.00,VWS V14.01,2013-05-21 06:31:00,
2013-05-21 02:36:00,72.9,60.8,29.97,SSW,202,0.0,3.4,66,0.00,,CLR,0.00,VWS V14.01,2013-05-21 06:36:00,
2013-05-21 02:41:00,72.7,60.7,29.97,SSW,202,0.0,3.4,66,0.00,,CLR,0.00,VWS V14.01,2013-05-21 06:41:00,
2013-05-21 02:46:00,72.7,60.7,29.97,SSW,202,0.0,3.4,66,0.00,,CLR,0.00,VWS V14.01,2013-05-21 06:46:00,
2013-05-21 02:51:00,72.5,60.9,29.97,SSW,202,0.0,3.4,67,0.00,,CLR,0.00,VWS V14.01,2013-05-21 06:51:00,
2013-05-21 02:56:00,72.5,60.9,29.97,SSW,202,0.0,3.4,67,0.00,,CLR,0.00,VWS V14.01,2013-05-21 06:56:00,
2013-05-21 03:00:00,72.3,60.8,29.97,SSW,202,0.0,3.4,67,0.00,,CLR,0.00,VWS V14.01,2013-05-21 07:00:00,
2013-05-21 03:01:00,72.3,61.2,29.97,SSW,202,0.0,0.0,68,0.00,,FEW200,0.00,VWS V14.01,2013-05-21 07:01:00,
2013-05-21 03:06:00,72.1,61.0,29.97,South,180,0.0,0.0,68,0.00,,FEW200,0.00,VWS V14.01,2013-05-21 07:06:00,
2013-05-21 03:11:00,72.1,61.0,29.94,SSW,202,0.0,3.1,68,0.00,,FEW200,0.00,VWS V14.01,2013-05-21 07:11:00,
2013-05-21 03:16:00,72.0,61.2,29.94,South,180,1.1,3.1,69,0.00,,FEW200,0.00,VWS V14.01,2013-05-21 07:16:00,
2013-05-21 03:21:00,72.0,61.2,29.94,South,180,1.1,3.1,69,0.00,,FEW200,0.00,VWS V14.01,2013-05-21 07:21:00,
2013-05-21 03:26:00,71.8,61.1,29.97,SSW,202,1.6,3.1,69,0.00,,FEW200,0.00,VWS V14.01,2013-05-21 07:26:00,
2013-05-21 03:31:00,71.8,61.1,29.97,SSW,202,1.6,3.1,69,0.00,,FEW200,0.00,VWS V14.01,2013-05-21 07:31:00,
2013-05-21 03:36:00,71.8,61.5,29.97,SSW,202,1.1,3.1,70,0.00,,FEW200,0.00,VWS V14.01,2013-05-21 07:36:00,
2013-05-21 03:41:00,71.8,61.5,29.97,SSW,202,1.1,3.1,70,0.00,,FEW200,0.00,VWS V14.01,2013-05-21 07:41:00,
2013-05-21 03:46:00,71.8,61.5,29.97,SW,225,0.0,3.1,70,0.00,,FEW200,0.00,VWS V14.01,2013-05-21 07:46:00,
2013-05-21 03:51:00,71.8,61.5,29.97,SSW,202,0.0,3.1,70,0.00,,FEW200,0.00,VWS V14.01,2013-05-21 07:51:00,
2013-05-21 03:56:00,71.6,61.3,29.97,SSW,202,1.1,3.1,70,0.00,,FEW200,0.00,VWS V14.01,2013-05-21 07:56:00,
2013-05-21 04:00:00,71.6,61.7,29.97,SSW,202,1.1,3.1,71,0.00,,CLR,0.00,VWS V14.01,2013-05-21 08:00:00,
2013-05-21 04:01:00,71.6,61.7,29.97,South,180,1.3,1.6,71,0.00,,CLR,0.00,VWS V14.01,2013-05-21 08:01:00,
2013-05-21 04:06:00,71.6,61.7,29.97,SSW,202,2.0,3.1,71,0.00,,CLR,0.00,VWS V14.01,2013-05-21 08:06:00,
2013-05-21 04:11:00,71.8,61.9,29.97,SW,225,1.6,3.1,71,0.00,,CLR,0.00,VWS V14.01,2013-05-21 08:11:00,
2013-05-21 04:16:00,71.8,61.9,29.97,WSW,248,1.3,3.1,71,0.00,,CLR,0.00,VWS V14.01,2013-05-21 08:16:00,
2013-05-21 04:21:00,71.8,62.3,29.97,SSW,202,1.6,3.4,72,0.00,,CLR,0.00,VWS V14.01,2013-05-21 08:21:00,
2013-05-21 04:26:00,72.0,62.0,29.97,SSW,202,2.2,3.4,71,0.00,,CLR,0.00,VWS V14.01,2013-05-21 08:26:00,
2013-05-21 04:31:00,72.0,62.0,29.97,SSW,202,2.0,3.4,71,0.00,,CLR,0.00,VWS V14.01,2013-05-21 08:31:00,
2013-05-21 04:36:00,72.1,62.6,29.97,South,180,2.5,3.6,72,0.00,,CLR,0.00,VWS V14.01,2013-05-21 08:36:00,
2013-05-21 04:41:00,72.1,62.2,29.94,SW,225,1.6,3.6,71,0.00,,CLR,0.00,VWS V14.01,2013-05-21 08:41:00,
2013-05-21 04:46:00,72.1,62.2,29.94,West,270,2.0,3.6,71,0.00,,CLR,0.00,VWS V14.01,2013-05-21 08:46:00,
2013-05-21 04:51:00,72.1,62.2,29.94,West,270,0.0,3.6,71,0.00,,CLR,0.00,VWS V14.01,2013-05-21 08:51:00,
2013-05-21 04:56:00,72.3,62.8,29.97,SSE,158,1.6,5.4,72,0.00,,CLR,0.00,VWS V14.01,2013-05-21 08:56:00,
2013-05-21 05:00:00,72.5,62.6,29.97,SSW,202,2.2,5.4,71,0.00,,CLR,0.00,VWS V14.01,2013-05-21 09:00:00,
2013-05-21 05:01:00,72.5,62.6,29.97,West,270,1.1,2.2,71,0.00,,CLR,0.00,VWS V14.01,2013-05-21 09:01:00,
2013-05-21 05:06:00,72.5,62.6,29.97,North,0,1.6,3.4,71,0.00,,CLR,0.00,VWS V14.01,2013-05-21 09:06:00,
2013-05-21 05:11:00,72.3,62.0,29.97,SSE,158,1.1,3.4,70,0.00,,CLR,0.00,VWS V14.01,2013-05-21 09:11:00,
2013-05-21 05:16:00,72.3,62.0,29.97,SSE,158,0.0,3.4,70,0.00,,CLR,0.00,VWS V14.01,2013-05-21 09:16:00,
2013-05-21 05:21:00,72.3,61.6,29.97,WNW,292,2.0,3.6,69,0.00,,CLR,0.00,VWS V14.01,2013-05-21 09:21:00,
2013-05-21 05:26:00,72.3,60.3,29.97,NE,45,1.6,3.6,66,0.00,,CLR,0.00,VWS V14.01,2013-05-21 09:26:00,
2013-05-21 05:31:00,72.5,59.2,29.97,ENE,68,0.0,3.6,63,0.00,,CLR,0.00,VWS V14.01,2013-05-21 09:31:00,
2013-05-21 05:36:00,72.5,59.2,29.97,South,180,0.0,3.6,63,0.00,,CLR,0.00,VWS V14.01,2013-05-21 09:36:00,
2013-05-21 05:41:00,72.3,58.6,29.97,SSE,158,0.0,3.6,62,0.00,,CLR,0.00,VWS V14.01,2013-05-21 09:41:00,
2013-05-21 05:46:00,72.3,58.6,29.97,SSE,158,0.0,3.6,62,0.00,,CLR,0.00,VWS V14.01,2013-05-21 09:46:00,
2013-05-21 05:51:00,72.1,58.0,29.97,SE,135,0.0,3.6,61,0.00,,CLR,0.00,VWS V14.01,2013-05-21 09:51:00,
2013-05-21 05:56:00,72.1,58.4,29.97,NNE,22,0.0,3.6,62,0.00,,CLR,0.00,VWS V14.01,2013-05-21 09:56:00,
2013-05-21 06:00:00,72.1,58.4,29.97,North,0,2.0,3.6,62,0.00,,CLR,0.00,VWS V14.01,2013-05-21 10:00:00,
2013-05-21 06:01:00,72.1,58.0,29.97,NW,315,1.6,2.0,61,0.00,,BKN070,0.00,VWS V14.01,2013-05-21 10:01:00,
2013-05-21 06:06:00,72.1,58.0,29.97,SSE,158,1.3,2.0,61,0.00,,BKN070,0.00,VWS V14.01,2013-05-21 10:06:00,
2013-05-21 06:11:00,72.1,58.0,29.97,SSE,158,0.0,2.0,61,0.00,,BKN070,0.00,VWS V14.01,2013-05-21 10:11:00,
2013-05-21 06:16:00,72.0,57.3,29.97,SSE,158,0.0,2.0,60,0.00,,BKN070,0.00,VWS V14.01,2013-05-21 10:16:00,
2013-05-21 06:21:00,72.0,57.8,29.97,SSE,158,0.0,2.0,61,0.00,,BKN070,0.00,VWS V14.01,2013-05-21 10:21:00,
2013-05-21 06:26:00,72.0,57.8,29.97,SSE,158,0.0,2.0,61,0.00,,BKN070,0.00,VWS V14.01,2013-05-21 10:26:00,
2013-05-21 06:31:00,71.8,57.6,29.97,SSE,158,0.0,2.0,61,0.00,,BKN020,0.00,VWS V14.01,2013-05-21 10:31:00,
2013-05-21 06:36:00,71.8,57.6,29.97,SSE,158,0.0,2.0,61,0.00,,BKN020,0.00,VWS V14.01,2013-05-21 10:36:00,
2013-05-21 06:41:00,71.8,57.6,29.97,SSE,158,0.0,2.0,61,0.00,,BKN020,0.00,VWS V14.01,2013-05-21 10:41:00,
2013-05-21 06:46:00,71.8,58.1,29.97,SSE,158,0.0,2.0,62,0.00,,BKN050,0.00,VWS V14.01,2013-05-21 10:46:00,
2013-05-21 06:51:00,71.8,58.1,29.97,SSE,158,0.0,2.0,62,0.00,,BKN050,0.00,VWS V14.01,2013-05-21 10:51:00,
2013-05-21 06:56:00,71.8,58.5,29.97,SSE,158,0.0,2.0,63,0.00,,BKN050,0.00,VWS V14.01,2013-05-21 10:56:00,
2013-05-21 07:00:00,71.6,58.3,29.97,SSE,158,0.0,2.0,63,0.00,,CLR,0.00,VWS V14.01,2013-05-21 11:00:00,
2013-05-21 07:01:00,71.6,58.8,29.97,SSE,158,0.0,0.0,64,0.00,,BKN065,0.00,VWS V14.01,2013-05-21 11:01:00,
2013-05-21 07:06:00,71.6,59.2,29.97,SSE,158,0.0,0.0,65,0.00,,BKN065,0.00,VWS V14.01,2013-05-21 11:06:00,
2013-05-21 07:11:00,71.6,59.2,29.97,SSE,158,0.0,0.0,65,0.00,,BKN065,0.00,VWS V14.01,2013-05-21 11:11:00,
2013-05-21 07:16:00,71.6,58.8,29.97,SSE,158,0.0,1.3,64,0.00,,BKN065,0.00,VWS V14.01,2013-05-21 11:16:00,
2013-05-21 07:21:00,71.6,58.8,29.97,South,180,0.0,1.6,64,0.00,,BKN065,0.00,VWS V14.01,2013-05-21 11:21:00,
2013-05-21 07:26:00,71.6,58.8,29.97,ESE,112,0.0,1.6,64,0.00,,BKN065,0.00,VWS V14.01,2013-05-21 11:26:00,
2013-05-21 07:31:00,71.8,59.4,29.97,SE,135,0.0,1.3,65,0.00,,BKN065,0.00,VWS V14.01,2013-05-21 11:31:00,
2013-05-21 07:36:00,71.8,59.4,29.97,SW,225,0.0,2.5,65,0.00,,BKN065,0.00,VWS V14.01,2013-05-21 11:36:00,
2013-05-21 07:41:00,71.8,59.8,30.00,West,270,0.0,2.5,66,0.00,,BKN065,0.00,VWS V14.01,2013-05-21 11:41:00,
2013-05-21 07:46:00,72.0,60.0,30.00,WSW,248,0.0,2.5,66,0.00,,BKN060,0.00,VWS V14.01,2013-05-21 11:46:00,
2013-05-21 07:51:00,72.0,61.2,30.00,South,180,2.0,3.1,69,0.00,,BKN060,0.00,VWS V14.01,2013-05-21 11:51:00,
2013-05-21 07:56:00,71.8,61.1,30.03,WNW,292,1.1,3.4,69,0.00,,BKN060,0.00,VWS V14.01,2013-05-21 11:56:00,
2013-05-21 08:00:00,71.6,60.9,30.03,SSE,158,0.9,3.4,69,0.00,,CLR,0.00,VWS V14.01,2013-05-21 12:00:00,
2013-05-21 08:01:00,71.6,61.3,30.03,WNW,292,1.1,1.3,70,0.00,,OVC060,0.00,VWS V14.01,2013-05-21 12:01:00,
2013-05-21 08:06:00,71.2,60.2,30.03,ESE,112,0.0,1.6,68,0.00,,OVC060,0.00,VWS V14.01,2013-05-21 12:06:00,
2013-05-21 08:11:00,71.1,60.4,30.03,ESE,112,0.0,1.6,69,0.00,,OVC060,0.00,VWS V14.01,2013-05-21 12:11:00,
2013-05-21 08:16:00,70.9,60.2,30.03,ESE,112,0.0,1.6,69,0.00,,OVC200,0.00,VWS V14.01,2013-05-21 12:16:00,
2013-05-21 08:21:00,70.5,59.9,30.03,ESE,112,0.0,1.6,69,0.00,,OVC200,0.00,VWS V14.01,2013-05-21 12:21:00,
2013-05-21 08:26:00,70.3,60.1,30.03,ESE,112,0.0,1.6,70,0.00,,OVC200,0.00,VWS V14.01,2013-05-21 12:26:00,
2013-05-21 08:31:00,70.3,60.1,30.03,ENE,68,0.0,2.9,70,0.00,,OVC200,0.00,VWS V14.01,2013-05-21 12:31:00,
2013-05-21 08:36:00,70.3,59.7,30.03,NNW,338,2.0,3.6,69,0.00,,OVC200,0.00,VWS V14.01,2013-05-21 12:36:00,
2013-05-21 08:41:00,70.3,59.7,30.00,ENE,68,0.0,3.6,69,0.00,,OVC200,0.00,VWS V14.01,2013-05-21 12:41:00,
2013-05-21 08:46:00,70.5,60.3,30.00,ENE,68,0.0,3.6,70,0.00,,OVC200,0.00,VWS V14.01,2013-05-21 12:46:00,
2013-05-21 08:51:00,70.5,60.3,30.00,ENE,68,0.0,3.6,70,0.00,,OVC200,0.00,VWS V14.01,2013-05-21 12:51:00,
2013-05-21 08:56:00,70.7,60.0,30.03,ENE,68,0.0,3.6,69,0.00,,OVC200,0.00,VWS V14.01,2013-05-21 12:56:00,
2013-05-21 09:00:00,70.7,60.0,30.03,NNW,338,1.6,3.6,69,0.00,,CLR,0.00,VWS V14.01,2013-05-21 13:00:00,
2013-05-21 09:01:00,70.7,60.0,30.03,North,0,2.0,2.2,69,0.00,,OVC200,0.00,VWS V14.01,2013-05-21 13:01:00,
2013-05-21 09:06:00,70.7,59.6,30.03,ESE,112,1.6,2.9,68,0.00,,OVC200,0.00,VWS V14.01,2013-05-21 13:06:00,
2013-05-21 09:11:00,70.9,59.8,30.00,ESE,112,0.0,2.9,68,0.00,,OVC200,0.00,VWS V14.01,2013-05-21 13:11:00,
2013-05-21 09:16:00,71.1,60.4,30.00,ESE,112,0.0,2.9,69,0.00,,BKN220,0.00,VWS V14.01,2013-05-21 13:16:00,
2013-05-21 09:21:00,71.2,60.2,30.00,SSE,158,0.0,2.9,68,0.00,,BKN220,0.00,VWS V14.01,2013-05-21 13:21:00,
2013-05-21 09:26:00,71.4,60.7,29.97,ESE,112,2.0,3.6,69,0.00,,BKN220,0.00,VWS V14.01,2013-05-21 13:26:00,
2013-05-21 09:31:00,71.4,60.3,29.97,SSE,158,0.0,3.6,68,0.00,,CLR,0.00,VWS V14.01,2013-05-21 13:31:00,
2013-05-21 09:36:00,71.8,61.1,29.97,ESE,112,1.6,3.6,69,0.00,,CLR,0.00,VWS V14.01,2013-05-21 13:36:00,
2013-05-21 09:41:00,72.3,62.0,29.97,SSE,158,3.4,3.6,70,0.00,,CLR,0.00,VWS V14.01,2013-05-21 13:41:00,
2013-05-21 09:46:00,72.9,62.5,29.97,ESE,112,3.8,3.8,70,0.00,,CLR,0.00,VWS V14.01,2013-05-21 13:46:00,
2013-05-21 09:51:00,73.0,61.9,29.97,South,180,1.3,3.8,68,0.00,,CLR,0.00,VWS V14.01,2013-05-21 13:51:00,
2013-05-21 09:56:00,73.2,61.6,29.94,SSE,158,2.7,4.9,67,0.00,,CLR,0.00,VWS V14.01,2013-05-21 13:56:00,
2013-05-21 10:00:00,73.4,61.8,29.94,SE,135,2.2,4.9,67,0.00,,CLR,0.00,VWS V14.01,2013-05-21 14:00:00,
2013-05-21 10:01:00,73.6,62.0,29.94,SSE,158,2.0,3.4,67,0.00,,CLR,0.00,VWS V14.01,2013-05-21 14:01:00,
2013-05-21 10:06:00,74.1,61.6,29.94,ENE,68,1.3,7.6,65,0.00,,CLR,0.00,VWS V14.01,2013-05-21 14:06:00,
2013-05-21 10:11:00,74.7,62.1,29.97,NNW,338,1.1,7.6,65,0.00,,CLR,0.00,VWS V14.01,2013-05-21 14:11:00,
2013-05-21 10:16:00,75.2,61.3,29.97,ESE,112,2.0,7.6,62,0.00,,BKN220,0.00,VWS V14.01,2013-05-21 14:16:00,
2013-05-21 10:21:00,75.9,61.5,29.97,South,180,2.5,7.6,61,0.00,,BKN220,0.00,VWS V14.01,2013-05-21 14:21:00,
2013-05-21 10:26:00,76.3,61.9,29.94,SSE,158,1.3,7.6,61,0.00,,BKN220,0.00,VWS V14.01,2013-05-21 14:26:00,
2013-05-21 10:31:00,76.5,61.6,29.94,SSE,158,2.7,7.6,60,0.00,,BKN220,0.00,VWS V14.01,2013-05-21 14:31:00,
2013-05-21 10:36:00,76.3,61.4,29.94,South,180,2.0,7.6,60,0.00,,BKN220,0.00,VWS V14.01,2013-05-21 14:36:00,
2013-05-21 10:41:00,75.9,61.5,29.97,SW,225,2.2,7.6,61,0.00,,BKN220,0.00,VWS V14.01,2013-05-21 14:41:00,
2013-05-21 10:46:00,75.7,60.9,29.97,SSW,202,2.5,7.6,60,0.00,,BKN220,0.00,VWS V14.01,2013-05-21 14:46:00,
2013-05-21 10:50:00,75.7,61.3,29.97,SW,225,1.6,7.6,61,0.00,,BKN220,0.00,VWS V14.01,2013-05-21 14:50:00,
2013-05-21 10:55:00,75.7,61.3,29.97,SW,225,1.6,7.6,61,0.00,,BKN220,0.00,VWS V14.01,2013-05-21 14:55:00,
2013-05-21 11:00:00,75.7,61.3,29.97,SSW,202,2.5,3.4,61,0.00,,BKN220,0.00,VWS V14.01,2013-05-21 15:00:00,
2013-05-21 11:05:00,75.9,61.5,29.97,SSW,202,2.9,3.4,61,0.00,,BKN220,0.00,VWS V14.01,2013-05-21 15:05:00,
2013-05-21 11:10:00,76.1,61.7,29.97,SW,225,2.5,3.8,61,0.00,,BKN220,0.00,VWS V14.01,2013-05-21 15:10:00,
2013-05-21 11:15:00,76.3,61.4,29.97,WSW,248,2.5,4.0,60,0.00,,SCT170,0.00,VWS V14.01,2013-05-21 15:15:00,
2013-05-21 11:20:00,76.6,61.7,29.97,SSW,202,0.0,4.0,60,0.00,,SCT170,0.00,VWS V14.01,2013-05-21 15:20:00,
2013-05-21 11:25:00,77.7,62.3,29.97,SSW,202,2.7,4.0,59,0.00,,SCT170,0.00,VWS V14.01,2013-05-21 15:25:00,
2013-05-21 11:30:00,78.3,61.8,29.97,SSW,202,3.1,4.3,57,0.00,,SCT170,0.00,VWS V14.01,2013-05-21 15:30:00,
2013-05-21 11:35:00,78.4,62.0,29.97,SSW,202,1.6,4.3,57,0.00,,SCT170,0.00,VWS V14.01,2013-05-21 15:35:00,
2013-05-21 11:40:00,79.9,62.3,29.97,SSW,202,2.9,4.3,55,0.00,,SCT170,0.00,VWS V14.01,2013-05-21 15:40:00,
2013-05-21 11:45:00,80.6,61.4,29.97,SSE,158,2.9,4.3,52,0.00,,SCT170,0.00,VWS V14.01,2013-05-21 15:45:00,
2013-05-21 11:50:00,81.1,60.8,29.97,SSW,202,3.1,4.3,50,0.00,,SCT170,0.00,VWS V14.01,2013-05-21 15:50:00,
2013-05-21 11:55:00,82.0,59.8,29.94,WSW,248,3.6,4.9,47,0.00,,SCT170,0.00,VWS V14.01,2013-05-21 15:55:00,
2013-05-21 12:00:00,82.6,59.7,29.94,SSW,202,2.7,4.9,46,0.00,,SCT170,0.00,VWS V14.01,2013-05-21 16:00:00,
2013-05-21 12:05:00,83.1,58.3,29.94,SSW,202,2.9,4.9,43,0.00,,SCT170,0.00,VWS V14.01,2013-05-21 16:05:00,
2013-05-21 12:10:00,83.7,58.2,29.94,South,180,4.3,4.9,42,0.00,,SCT170,0.00,VWS V14.01,2013-05-21 16:10:00,
2013-05-21 12:16:00,84.0,57.8,29.94,SW,225,1.6,2.2,41,0.00,,SCT170,0.00,VWS V14.01,2013-05-21 16:16:00,
2013-05-21 12:21:00,84.7,58.5,29.94,SW,225,3.8,6.3,41,0.00,,SCT170,0.00,VWS V14.01,2013-05-21 16:21:00,
2013-05-21 12:26:00,85.3,55.3,29.94,SSW,202,2.5,6.3,36,0.00,,SCT170,0.00,VWS V14.01,2013-05-21 16:26:00,
2013-05-21 12:31:00,85.6,55.7,29.94,WSW,248,3.4,6.3,36,0.00,,BKN190,0.00,VWS V14.01,2013-05-21 16:31:00,
2013-05-21 12:36:00,86.2,56.9,29.94,SW,225,5.6,6.3,37,0.00,,BKN190,0.00,VWS V14.01,2013-05-21 16:36:00,
2013-05-21 12:41:00,86.7,55.8,29.94,WSW,248,3.1,6.3,35,0.00,,BKN190,0.00,VWS V14.01,2013-05-21 16:41:00,
2013-05-21 12:46:00,87.1,53.7,29.94,SSW,202,4.9,6.3,32,0.00,,BKN190,0.00,VWS V14.01,2013-05-21 16:46:00,
2013-05-21 12:51:00,87.3,54.7,29.94,SSW,202,1.6,6.3,33,0.00,,BKN190,0.00,VWS V14.01,2013-05-21 16:51:00,
2013-05-21 12:56:00,87.6,55.0,29.94,SSE,158,3.4,6.3,33,0.00,,BKN190,0.00,VWS V14.01,2013-05-21 16:56:00,
2013-05-21 13:00:00,88.0,53.6,29.94,SW,225,2.9,6.3,31,0.00,,CLR,0.00,VWS V14.01,2013-05-21 17:00:00,
2013-05-21 13:01:00,88.0,52.7,29.94,SW,225,3.4,5.6,30,0.00,,BKN190,0.00,VWS V14.01,2013-05-21 17:01:00,
2013-05-21 13:06:00,88.5,52.2,29.94,SSW,202,3.4,5.6,29,0.00,,BKN190,0.00,VWS V14.01,2013-05-21 17:06:00,
2013-05-21 13:11:00,89.1,54.5,29.94,South,180,3.6,5.6,31,0.00,,BKN190,0.00,VWS V14.01,2013-05-21 17:11:00,
2013-05-21 13:16:00,89.8,53.3,29.94,WSW,248,4.9,7.6,29,0.00,,BKN200,0.00,VWS V14.01,2013-05-21 17:16:00,
2013-05-21 13:21:00,90.1,53.6,29.94,SW,225,4.0,7.6,29,0.00,,BKN200,0.00,VWS V14.01,2013-05-21 17:21:00,
2013-05-21 13:26:00,90.1,51.7,29.94,SSW,202,4.9,7.6,27,0.00,,BKN200,0.00,VWS V14.01,2013-05-21 17:26:00,
2013-05-21 13:31:00,90.1,52.7,29.94,WSW,248,3.1,7.6,28,0.00,,BKN200,0.00,VWS V14.01,2013-05-21 17:31:00,
2013-05-21 13:36:00,90.0,52.5,29.94,SSW,202,4.3,7.6,28,0.00,,BKN200,0.00,VWS V14.01,2013-05-21 17:36:00,
2013-05-21 13:41:00,89.2,50.9,29.94,SW,225,2.0,7.6,27,0.00,,BKN200,0.00,VWS V14.01,2013-05-21 17:41:00,
2013-05-21 13:46:00,88.2,45.7,29.94,WNW,292,3.4,7.6,23,0.00,,BKN200,0.00,VWS V14.01,2013-05-21 17:46:00,
2013-05-21 13:51:00,87.3,46.1,29.94,SSW,202,3.4,7.6,24,0.00,,BKN200,0.00,VWS V14.01,2013-05-21 17:51:00,
2013-05-21 13:56:00,87.6,47.5,29.94,SW,225,4.7,7.6,25,0.00,,BKN200,0.00,VWS V14.01,2013-05-21 17:56:00,
2013-05-21 14:00:00,87.6,50.5,29.94,WSW,248,3.1,7.6,28,0.00,,CLR,0.00,VWS V14.01,2013-05-21 18:00:00,
2013-05-21 14:01:00,88.0,50.8,29.94,SW,225,3.6,4.9,28,0.00,,BKN200,0.00,VWS V14.01,2013-05-21 18:01:00,
2013-05-21 14:06:00,88.2,50.0,29.94,West,270,3.4,3.4,27,0.00,,BKN200,0.00,VWS V14.01,2013-05-21 18:06:00,
2013-05-21 14:11:00,88.7,51.4,29.94,WSW,248,2.0,4.0,28,0.00,,BKN200,0.00,VWS V14.01,2013-05-21 18:11:00,
2013-05-21 14:16:00,89.1,49.8,29.94,NNW,338,3.1,4.3,26,0.00,,SCT060,0.00,VWS V14.01,2013-05-21 18:16:00,
2013-05-21 14:21:00,87.8,49.7,29.94,SSW,202,2.2,4.3,27,0.00,,SCT060,0.00,VWS V14.01,2013-05-21 18:21:00,
2013-05-21 14:26:00,86.9,46.9,29.94,NW,315,2.7,4.3,25,0.00,,SCT060,0.00,VWS V14.01,2013-05-21 18:26:00,
2013-05-21 14:31:00,87.6,50.5,29.94,WNW,292,3.4,4.9,28,0.00,,SCT060,0.00,VWS V14.01,2013-05-21 18:31:00,
2013-05-21 14:36:00,88.3,51.1,29.94,West,270,2.7,4.9,28,0.00,,SCT060,0.00,VWS V14.01,2013-05-21 18:36:00,
2013-05-21 14:41:00,88.9,46.3,29.94,West,270,2.7,9.6,23,0.00,,SCT060,0.00,VWS V14.01,2013-05-21 18:41:00,
2013-05-21 14:46:00,89.1,48.7,29.94,SSW,202,3.4,9.6,25,0.00,,SCT060,0.00,VWS V14.01,2013-05-21 18:46:00,
2013-05-21 14:51:00,89.4,46.8,29.94,WSW,248,5.4,9.6,23,0.00,,SCT060,0.00,VWS V14.01,2013-05-21 18:51:00,
2013-05-21 14:56:00,89.4,49.0,29.94,SSW,202,2.7,9.6,25,0.00,,SCT060,0.00,VWS V14.01,2013-05-21 18:56:00,
2013-05-21 15:00:00,89.2,49.9,29.94,South,180,4.7,9.6,26,0.00,,CLR,0.00,VWS V14.01,2013-05-21 19:00:00,
2013-05-21 15:01:00,89.4,50.0,29.94,SSW,202,3.8,4.7,26,0.00,,SCT060,0.00,VWS V14.01,2013-05-21 19:01:00,
2013-05-21 15:06:00,89.6,49.2,29.94,WSW,248,2.5,6.5,25,0.00,,SCT060,0.00,VWS V14.01,2013-05-21 19:06:00,
2013-05-21 15:11:00,90.1,49.6,29.94,SW,225,4.3,6.5,25,0.00,,SCT060,0.00,VWS V14.01,2013-05-21 19:11:00,
2013-05-21 15:16:00,89.8,50.4,29.94,WSW,248,1.6,6.5,26,0.00,,OVC250,0.00,VWS V14.01,2013-05-21 19:16:00,
2013-05-21 15:21:00,89.6,50.2,29.94,SSW,202,4.0,6.5,26,0.00,,OVC250,0.00,VWS V14.01,2013-05-21 19:21:00,
2013-05-21 15:26:00,88.2,51.0,29.94,SW,225,2.9,6.5,28,0.00,,OVC250,0.00,VWS V14.01,2013-05-21 19:26:00,
2013-05-21 15:31:00,87.1,50.1,29.94,WSW,248,4.7,6.5,28,0.00,,OVC250,0.00,VWS V14.01,2013-05-21 19:31:00,
2013-05-21 15:36:00,87.1,50.1,29.94,SSW,202,4.3,7.4,28,0.00,,OVC250,0.00,VWS V14.01,2013-05-21 19:36:00,
2013-05-21 15:41:00,86.4,47.5,29.94,SW,225,2.9,7.4,26,0.00,,OVC250,0.00,VWS V14.01,2013-05-21 19:41:00,
2013-05-21 15:46:00,86.0,49.1,29.94,SSW,202,8.5,8.5,28,0.00,,OVC250,0.00,VWS V14.01,2013-05-21 19:46:00,
2013-05-21 15:51:00,85.6,49.8,29.94,SSW,202,3.4,8.5,29,0.00,,OVC250,0.00,VWS V14.01,2013-05-21 19:51:00,
2013-05-21 15:56:00,84.7,49.0,29.94,SW,225,3.8,8.5,29,0.00,,OVC250,0.00,VWS V14.01,2013-05-21 19:56:00,
2013-05-21 16:00:00,84.2,48.5,29.94,SW,225,3.4,8.5,29,0.00,,CLR,0.00,VWS V14.01,2013-05-21 20:00:00,
2013-05-21 16:01:00,84.2,48.5,29.94,WSW,248,3.8,3.8,29,0.00,,OVC250,0.00,VWS V14.01,2013-05-21 20:01:00,
2013-05-21 16:06:00,84.0,49.3,29.94,SSW,202,4.0,4.7,30,0.00,,OVC250,0.00,VWS V14.01,2013-05-21 20:06:00,
2013-05-21 16:11:00,83.7,48.1,29.94,SW,225,4.7,6.0,29,0.00,,OVC250,0.00,VWS V14.01,2013-05-21 20:11:00,
2013-05-21 16:16:00,83.3,48.7,29.94,SW,225,4.0,6.0,30,0.00,,OVC250,0.00,VWS V14.01,2013-05-21 20:16:00,
2013-05-21 16:21:00,83.1,48.5,29.94,South,180,4.3,6.0,30,0.00,,OVC250,0.00,VWS V14.01,2013-05-21 20:21:00,
2013-05-21 16:26:00,83.5,49.7,29.94,SSW,202,1.6,6.0,31,0.00,,OVC250,0.00,VWS V14.01,2013-05-21 20:26:00,
2013-05-21 16:31:00,83.8,50.9,29.94,WSW,248,2.5,6.0,32,0.00,,OVC250,0.00,VWS V14.01,2013-05-21 20:31:00,
2013-05-21 16:36:00,84.4,50.5,29.94,SW,225,3.1,6.0,31,0.00,,OVC250,0.00,VWS V14.01,2013-05-21 20:36:00,
2013-05-21 16:41:00,84.6,50.6,29.91,SW,225,2.7,6.0,31,0.00,,OVC250,0.00,VWS V14.01,2013-05-21 20:41:00,
2013-05-21 16:46:00,84.6,50.6,29.91,SSW,202,2.5,6.0,31,0.00,,OVC250,0.00,VWS V14.01,2013-05-21 20:46:00,
2013-05-21 16:51:00,84.6,50.6,29.91,WSW,248,2.5,6.0,31,0.00,,OVC250,0.00,VWS V14.01,2013-05-21 20:51:00,
2013-05-21 16:56:00,84.2,49.4,29.91,SW,225,1.3,6.0,30,0.00,,OVC250,0.00,VWS V14.01,2013-05-21 20:56:00,
2013-05-21 17:00:00,84.0,49.3,29.91,SW,225,1.3,6.0,30,0.00,,CLR,0.00,VWS V14.01,2013-05-21 21:00:00,
2013-05-21 17:01:00,83.8,50.0,29.91,SW,225,1.3,2.5,31,0.00,,FEW190,0.00,VWS V14.01,2013-05-21 21:01:00,
2013-05-21 17:06:00,84.0,50.2,29.91,SSE,158,3.1,3.1,31,0.00,,FEW190,0.00,VWS V14.01,2013-05-21 21:06:00,
2013-05-21 17:11:00,84.4,50.5,29.91,SW,225,2.5,3.1,31,0.00,,FEW190,0.00,VWS V14.01,2013-05-21 21:11:00,
2013-05-21 17:16:00,84.9,50.9,29.91,SSW,202,2.5,3.1,31,0.00,,FEW190,0.00,VWS V14.01,2013-05-21 21:16:00,
2013-05-21 17:21:00,85.3,50.4,29.91,South,180,2.0,3.8,30,0.00,,FEW190,0.00,VWS V14.01,2013-05-21 21:21:00,
2013-05-21 17:26:00,85.3,50.4,29.88,SSW,202,2.0,4.7,30,0.00,,FEW190,0.00,VWS V14.01,2013-05-21 21:26:00,
2013-05-21 17:31:00,85.1,50.2,29.88,South,180,2.5,4.7,30,0.00,,FEW190,0.00,VWS V14.01,2013-05-21 21:31:00,
2013-05-21 17:36:00,84.4,49.6,29.88,SW,225,2.7,4.7,30,0.00,,FEW190,0.00,VWS V14.01,2013-05-21 21:36:00,
2013-05-21 17:40:00,84.7,51.6,29.91,SSE,158,2.7,4.7,32,0.00,,FEW190,0.00,VWS V14.01,2013-05-21 21:40:00,
2013-05-21 17:45:00,85.8,52.6,29.91,SSW,202,2.0,4.7,32,0.00,,FEW190,0.00,VWS V14.01,2013-05-21 21:45:00,
2013-05-21 17:50:00,86.5,52.3,29.91,SSW,202,3.8,4.7,31,0.00,,FEW190,0.00,VWS V14.01,2013-05-21 21:50:00,
2013-05-21 17:55:00,86.5,51.5,29.91,South,180,3.1,4.7,30,0.00,,FEW190,0.00,VWS V14.01,2013-05-21 21:55:00,
2013-05-21 18:00:00,86.4,51.3,29.91,SSW,202,2.9,2.9,30,0.00,,FEW190,0.00,VWS V14.01,2013-05-21 22:00:00,
2013-05-21 18:05:00,85.6,50.7,29.91,SSW,202,3.1,3.8,30,0.00,,SCT200,0.00,VWS V14.01,2013-05-21 22:05:00,
2013-05-21 18:10:00,85.1,51.1,29.91,South,180,0.0,3.8,31,0.00,,SCT200,0.00,VWS V14.01,2013-05-21 22:10:00,
2013-05-21 18:15:00,85.1,51.1,29.91,SW,225,2.7,3.8,31,0.00,,SCT200,0.00,VWS V14.01,2013-05-21 22:15:00,
2013-05-21 18:20:00,85.6,52.4,29.91,South,180,2.0,3.8,32,0.00,,SCT200,0.00,VWS V14.01,2013-05-21 22:20:00,
2013-05-21 18:25:00,85.6,51.6,29.88,SSE,158,2.5,4.3,31,0.00,,SCT200,0.00,VWS V14.01,2013-05-21 22:25:00,
2013-05-21 18:30:00,85.6,52.4,29.88,SSW,202,2.7,4.3,32,0.00,,SCT200,0.00,VWS V14.01,2013-05-21 22:30:00,
2013-05-21 18:35:00,85.5,52.3,29.88,South,180,4.0,4.3,32,0.00,,SCT200,0.00,VWS V14.01,2013-05-21 22:35:00,
2013-05-21 18:40:00,85.3,53.0,29.88,WSW,248,0.0,4.3,33,0.00,,SCT200,0.00,VWS V14.01,2013-05-21 22:40:00,
2013-05-21 18:45:00,85.1,52.8,29.88,SSW,202,2.9,4.3,33,0.00,,SCT200,0.00,VWS V14.01,2013-05-21 22:45:00,
2013-05-21 18:50:00,84.7,51.6,29.88,South,180,1.3,4.3,32,0.00,,SCT200,0.00,VWS V14.01,2013-05-21 22:50:00,
2013-05-21 18:55:00,84.2,52.0,29.88,SSW,202,2.2,4.3,33,0.00,,SCT200,0.00,VWS V14.01,2013-05-21 22:55:00,
2013-05-21 19:00:00,83.5,51.4,29.88,SSW,202,2.0,2.9,33,0.00,,SCT200,0.00,VWS V14.01,2013-05-21 23:00:00,
2013-05-21 19:09:00,82.4,51.2,29.88,SW,225,2.0,2.9,34,0.00,,FEW100,0.00,VWS V14.01,2013-05-21 23:09:00,
2013-05-21 19:14:00,81.9,51.5,29.88,SSW,202,2.5,3.6,35,0.00,,FEW100,0.00,VWS V14.01,2013-05-21 23:14:00,
2013-05-21 19:19:00,81.1,51.7,29.88,SW,225,2.9,3.6,36,0.00,,FEW100,0.00,VWS V14.01,2013-05-21 23:19:00,
2013-05-21 19:24:00,80.6,52.0,29.88,SSW,202,2.0,4.0,37,0.00,,FEW100,0.00,VWS V14.01,2013-05-21 23:24:00,
2013-05-21 19:29:00,80.4,52.5,29.88,South,180,0.9,4.0,38,0.00,,FEW100,0.00,VWS V14.01,2013-05-21 23:29:00,
2013-05-21 19:34:00,79.7,53.3,29.88,South,180,2.0,4.0,40,0.00,,FEW100,0.00,VWS V14.01,2013-05-21 23:34:00,
2013-05-21 19:39:00,79.3,53.6,29.88,SSW,202,1.6,4.0,41,0.00,,FEW100,0.00,VWS V14.01,2013-05-21 23:39:00,
2013-05-21 19:44:00,79.2,53.5,29.88,South,180,1.6,4.0,41,0.00,,FEW100,0.00,VWS V14.01,2013-05-21 23:44:00,
2013-05-21 19:49:00,78.8,53.8,29.88,SSW,202,3.1,4.0,42,0.00,,FEW100,0.00,VWS V14.01,2013-05-21 23:49:00,
2013-05-21 19:54:00,78.6,54.3,29.91,SW,225,2.7,4.0,43,0.00,,FEW100,0.00,VWS V14.01,2013-05-21 23:54:00,
2013-05-21 19:59:00,78.3,55.2,29.91,SSW,202,2.7,4.0,45,0.00,,FEW100,0.00,VWS V14.01,2013-05-21 23:59:00,
2013-05-21 20:00:00,78.1,55.0,29.91,South,180,2.9,4.0,45,0.00,,CLR,0.00,VWS V14.01,2013-05-22 00:00:00,
2013-05-21 20:04:00,77.9,54.3,29.91,SW,225,3.1,3.1,44,0.00,,FEW100,0.00,VWS V14.01,2013-05-22 00:04:00,
2013-05-21 20:09:00,77.7,55.3,29.91,SSW,202,2.7,3.1,46,0.00,,FEW100,0.00,VWS V14.01,2013-05-22 00:09:00,
2013-05-21 20:14:00,77.5,55.2,29.91,SSW,202,3.4,3.4,46,0.00,,FEW100,0.00,VWS V14.01,2013-05-22 00:14:00,
2013-05-21 20:19:00,77.2,55.4,29.91,SSW,202,2.7,3.4,47,0.00,,BKN110,0.00,VWS V14.01,2013-05-22 00:19:00,
2013-05-21 20:24:00,76.8,56.2,29.91,SSE,158,2.9,3.4,49,0.00,,BKN110,0.00,VWS V14.01,2013-05-22 00:24:00,
2013-05-21 20:29:00,76.5,57.0,29.91,South,180,3.4,3.6,51,0.00,,BKN110,0.00,VWS V14.01,2013-05-22 00:29:00,
2013-05-21 20:34:00,76.1,56.1,29.91,SW,225,3.1,4.0,50,0.00,,BKN110,0.00,VWS V14.01,2013-05-22 00:34:00,
2013-05-21 20:39:00,75.9,57.0,29.88,SSW,202,2.2,4.3,52,0.00,,BKN110,0.00,VWS V14.01,2013-05-22 00:39:00,
2013-05-21 20:43:00,75.6,56.7,29.88,SW,225,3.4,4.3,52,0.00,,BKN110,0.00,VWS V14.01,2013-05-22 00:43:00,
2013-05-21 20:48:00,75.2,56.4,29.88,South,180,4.7,5.8,52,0.00,,BKN110,0.00,VWS V14.01,2013-05-22 00:48:00,
2013-05-21 20:53:00,75.0,56.8,29.88,SSW,202,2.9,5.8,53,0.00,,BKN110,0.00,VWS V14.01,2013-05-22 00:53:00,
2013-05-21 20:58:00,74.8,57.6,29.91,SSW,202,2.0,5.8,55,0.00,,BKN110,0.00,VWS V14.01,2013-05-22 00:58:00,
2013-05-21 21:00:00,78.1,55.0,29.91,South,180,2.9,4.0,45,0.00,,,0.00,VWS V14.01,2013-05-22 01:00:00,
2013-05-21 21:03:00,74.5,56.8,29.91,SSW,202,2.9,5.8,54,0.00,,OVC200,0.00,VWS V14.01,2013-05-22 01:03:00,
2013-05-21 21:08:00,74.3,56.6,29.91,South,180,2.7,5.8,54,0.00,,OVC200,0.00,VWS V14.01,2013-05-22 01:08:00,
2013-05-21 21:24:00,73.8,57.6,29.91,SSW,202,2.0,2.0,57,0.00,,CLR,0.00,VWS V14.01,2013-05-22 01:24:00,
2013-05-21 21:39:00,73.2,58.0,29.88,South,180,2.0,2.0,59,0.00,,CLR,0.00,VWS V14.01,2013-05-22 01:39:00,
2013-05-21 22:09:00,72.5,58.3,29.91,SW,225,2.5,2.5,61,0.00,,CLR,0.00,VWS V14.01,2013-05-22 02:09:00,
2013-05-21 22:13:00,72.5,58.3,29.91,South,180,0.0,2.5,61,0.00,,OVC200,0.00,VWS V14.01,2013-05-22 02:13:00,
2013-05-21 22:18:00,72.3,58.1,29.91,SSW,202,2.2,2.7,61,0.00,,OVC200,0.00,VWS V14.01,2013-05-22 02:18:00,
2013-05-21 22:23:00,72.3,58.1,29.91,SSW,202,2.9,3.1,61,0.00,,OVC200,0.00,VWS V14.01,2013-05-22 02:23:00,
2013-05-21 22:24:00,73.8,57.6,29.91,SSW,202,2.0,2.0,57,0.00,,,0.00,VWS V14.01,2013-05-22 02:24:00,
2013-05-21 22:28:00,72.1,58.4,29.91,SSW,202,1.6,3.1,62,0.00,,OVC200,0.00,VWS V14.01,2013-05-22 02:28:00,
2013-05-21 22:33:00,72.1,58.4,29.91,South,180,2.9,3.1,62,0.00,,OVC200,0.00,VWS V14.01,2013-05-22 02:33:00,
2013-05-21 22:38:00,72.0,58.2,29.91,SSW,202,2.5,3.6,62,0.00,,OVC200,0.00,VWS V14.01,2013-05-22 02:38:00,
2013-05-21 22:39:00,73.2,58.0,29.88,South,180,2.0,2.0,59,0.00,,,0.00,VWS V14.01,2013-05-22 02:39:00,
2013-05-21 22:43:00,71.8,58.1,29.91,SSW,202,3.8,4.0,62,0.00,,OVC200,0.00,VWS V14.01,2013-05-22 02:43:00,
2013-05-21 22:48:00,71.8,58.1,29.91,SSW,202,2.0,4.0,62,0.00,,OVC200,0.00,VWS V14.01,2013-05-22 02:48:00,
2013-05-21 22:53:00,71.8,58.5,29.91,SW,225,2.5,4.0,63,0.00,,OVC200,0.00,VWS V14.01,2013-05-22 02:53:00,
2013-05-21 22:58:00,71.8,58.5,29.91,SSW,202,2.0,4.0,63,0.00,,OVC200,0.00,VWS V14.01,2013-05-22 02:58:00,
2013-05-21 23:00:00,71.8,58.5,29.91,SSW,202,2.2,4.0,63,0.00,,CLR,0.00,VWS V14.01,2013-05-22 03:00:00,
2013-05-21 23:03:00,71.8,58.1,29.91,SSW,202,3.4,3.4,62,0.00,,BKN080,0.00,VWS V14.01,2013-05-22 03:03:00,
2013-05-21 23:08:00,71.8,58.5,29.94,SSW,202,2.7,3.6,63,0.00,,BKN080,0.00,VWS V14.01,2013-05-22 03:08:00,
2013-05-21 23:09:00,72.5,58.3,29.91,SW,225,2.5,2.5,61,0.00,,,0.00,VWS V14.01,2013-05-22 03:09:00,
2013-05-21 23:13:00,71.8,58.1,29.94,SW,225,2.0,4.7,62,0.00,,BKN080,0.00,VWS V14.01,2013-05-22 03:13:00,
2013-05-21 23:18:00,71.8,57.6,29.94,SSW,202,2.9,4.7,61,0.00,,BKN080,0.00,VWS V14.01,2013-05-22 03:18:00,
2013-05-21 23:23:00,71.8,57.6,29.94,SW,225,2.5,2.7,61,0.00,,BKN080,0.00,VWS V14.01,2013-05-22 03:23:00,
2013-05-21 23:28:00,71.6,57.0,29.91,SSW,202,2.7,2.9,60,0.00,,BKN080,0.00,VWS V14.01,2013-05-22 03:28:00,
2013-05-21 23:33:00,71.6,56.5,29.91,SW,225,2.9,3.6,59,0.00,,BKN080,0.00,VWS V14.01,2013-05-22 03:33:00,
2013-05-21 23:38:00,71.6,56.5,29.91,SW,225,2.7,4.3,59,0.00,,BKN080,0.00,VWS V14.01,2013-05-22 03:38:00,
2013-05-21 23:43:00,71.6,56.5,29.91,SSW,202,2.5,4.7,59,0.00,,BKN080,0.00,VWS V14.01,2013-05-22 03:43:00,
2013-05-21 23:48:00,71.4,56.4,29.91,SSW,202,2.9,4.7,59,0.00,,BKN080,0.00,VWS V14.01,2013-05-22 03:48:00,
2013-05-21 23:54:00,71.4,56.4,29.91,South,180,3.6,3.6,59,0.00,,BKN080,0.00,VWS V14.01,2013-05-22 03:54:00,
2013-05-21 23:59:00,71.4,57.3,29.91,SSW,202,4.0,5.6,61,0.00,,BKN080,0.00,VWS V14.01,2013-05-22 03:59:00,